Weather History for Millville, NJ

Change the Weather History Date:

Sunday, July 13, 2014

  Actual Average Record
Temperature  
Mean Temperature 78 °F -  
Max Temperature 87 °F 85 °F 96 °F (1966)
Min Temperature 70 °F 65 °F 54 °F (2000)
Cooling Degree Days 13    
Growing Degree Days 28 (Base 50)    
Moisture  
Dew Point 71 °F    
Average Humidity 85    
Maximum Humidity 97    
Minimum Humidity 65    
Precipitation  
Precipitation 0.00 in - - ()
Sea Level Pressure  
Sea Level Pressure 30.06 in    
Wind  
Wind Speed 4 mph (South)    
Max Wind Speed 13 mph    
Max Gust Speed 21 mph    
Visibility 10 miles    
Events Rain    
Averages and records for this station are not official NWS values.
T = Trace of Precipitation, MM = Missing Value Source: NWS Daily Summary

Daily Weather History Graph

Daily Weather History Graph

Search for Another Location

Airport:

Trip Planner

Search our weather history database for the weather conditions in past years. The results will help you decide how hot, cold, wet, or windy it might be!

Date:

Astronomy

Jul. 13, 2014 Rise Set
Actual Time 5:44 AM EDT 8:27 PM EDT
Civil Twilight 5:12 AM EDT 8:58 PM EDT
Nautical Twilight 4:33 AM EDT 9:38 PM EDT
Astronomical Twilight 3:48 AM EDT 10:22 PM EDT
Moon 9:14 PM EDT (7/13) 7:11 AM EDT (7/13)
Length of Visible Light 15h 45m
Length of Day
14h 42m
Full, 98% of the Moon is Illuminated
Jul 13
Full
Jul 18
Last Quarter
Jul 26
New
Aug 3
First Quarter
Aug 10
Full

Hourly Weather History & Observations

Time (EDT) Temp. Heat Index Dew Point Humidity Pressure Visibility Wind Dir Wind Speed Gust Speed Precip Events Conditions
12:54 AM 71.1 °F - 69.1 °F 93% 30.15 in 10.0 mi Variable 3.5 mph - N/A   Clear
1:54 AM 71.1 °F - 69.1 °F 93% 30.13 in 10.0 mi SSW 3.5 mph - N/A   Partly Cloudy
2:19 AM 71.1 °F - 69.1 °F 93% 30.12 in 10.0 mi Calm Calm - N/A   Mostly Cloudy
2:30 AM 71.1 °F - 69.1 °F 93% 30.12 in 10.0 mi South 3.5 mph - N/A   Mostly Cloudy
2:39 AM 71.1 °F - 69.1 °F 93% 30.12 in 10.0 mi Calm Calm - N/A   Mostly Cloudy
2:54 AM 71.1 °F - 69.1 °F 93% 30.11 in 10.0 mi SSW 3.5 mph - N/A   Scattered Clouds
3:54 AM 70.0 °F - 69.1 °F 97% 30.11 in 10.0 mi Variable 3.5 mph - N/A   Partly Cloudy
4:54 AM 71.1 °F - 69.1 °F 93% 30.11 in 10.0 mi Calm Calm - N/A   Clear
5:54 AM 71.1 °F - 69.1 °F 93% 30.12 in 10.0 mi Variable 3.5 mph - N/A   Partly Cloudy
6:54 AM 71.1 °F - 69.1 °F 93% 30.11 in 10.0 mi SSW 4.6 mph - N/A   Scattered Clouds
7:17 AM 72.0 °F - 70.0 °F 93% 30.11 in 10.0 mi Variable 4.6 mph - N/A   Mostly Cloudy
7:50 AM 73.4 °F - 69.8 °F 88% 30.11 in 10.0 mi Variable 4.6 mph - N/A   Overcast
7:54 AM 73.0 °F - 71.1 °F 93% 30.10 in 10.0 mi Calm Calm - N/A   Overcast
8:14 AM 73.9 °F - 71.1 °F 91% 30.10 in 10.0 mi Variable 4.6 mph - N/A   Overcast
8:54 AM 75.0 °F - 71.1 °F 87% 30.09 in 10.0 mi Variable 6.9 mph - N/A   Mostly Cloudy
9:36 AM 73.9 °F - 71.1 °F 91% 30.08 in 7.0 mi Variable 5.8 mph - 0.00 in Rain Light Rain
9:54 AM 73.9 °F - 72.0 °F 93% 30.07 in 8.0 mi South 5.8 mph - 0.00 in   Overcast
10:13 AM 75.0 °F - 72.0 °F 90% 30.07 in 9.0 mi Variable 3.5 mph - N/A   Mostly Cloudy
10:54 AM 77.0 °F - 72.0 °F 84% 30.06 in 10.0 mi Variable 5.8 mph - N/A   Scattered Clouds
11:54 AM 80.1 °F 84.2 °F 73.0 °F 79% 30.05 in 10.0 mi SSW 10.4 mph - N/A   Clear
12:54 PM 80.1 °F 84.2 °F 73.0 °F 79% 30.04 in 10.0 mi SSW 8.1 mph 17.3 mph N/A   Partly Cloudy
1:54 PM 84.0 °F 89.6 °F 72.0 °F 67% 30.02 in 10.0 mi South 10.4 mph 20.7 mph N/A   Clear
2:54 PM 86.0 °F 93.0 °F 73.0 °F 65% 30.00 in 10.0 mi South 6.9 mph 16.1 mph N/A   Clear
3:54 PM 86.0 °F 93.0 °F 73.0 °F 65% 29.98 in 10.0 mi South 6.9 mph 17.3 mph N/A   Scattered Clouds
4:54 PM 84.9 °F 92.1 °F 73.9 °F 69% 29.95 in 10.0 mi South 8.1 mph - N/A   Clear
5:54 PM 82.0 °F 87.4 °F 73.0 °F 74% 29.94 in 10.0 mi South 9.2 mph - N/A   Clear
7:54 PM 79.0 °F - 73.9 °F 84% 29.95 in 10.0 mi South 6.9 mph - N/A   Clear
8:54 PM 78.1 °F - 73.0 °F 84% 29.94 in 10.0 mi Variable 6.9 mph - N/A   Clear
9:54 PM 78.1 °F - 72.0 °F 81% 29.97 in 10.0 mi Variable 6.9 mph - N/A   Clear
10:54 PM 78.1 °F - 71.1 °F 79% 29.96 in 10.0 mi Variable 5.8 mph - N/A   Clear
11:54 PM 78.1 °F - 71.1 °F 79% 29.97 in 10.0 mi WSW 12.7 mph 20.7 mph N/A   Mostly Cloudy